This demonstration page uses our WeatherBlox Daily Observations layout. Learn more.

Left ArrowRight Arrow

36.19886, -115.1175

Hourly Observations for September 12, 2021

Temp ( °F °C ) Dew Point ( °F °C ) Humidity (%) Winds ( mph kmh ) Pressure ( in mb ) Visibility ( mi km ) Precip ( " mm )
12:53 am 00:53 Clear 88 31.1 49 9.4 26 26 W 7 11 29.87 1012 10 16 0.00 0.00
1:53 am 01:53 Clear 84 28.9 49 9.4 30 30 NNW 10 17 29.88 1012 10 16 0.00 0.00
2:53 am 02:53 Clear 84 28.9 48 8.9 29 29 Calm 29.88 1012 10 16 0.00 0.00
3:53 am 03:53 Clear 83 28.3 49 9.4 31 31 Calm 29.89 1012 10 16 0.00 0.00
4:53 am 04:53 Clear 82 27.8 47 8.3 29 29 N 6 9 29.89 1012 10 16 0.00 0.00
5:53 am 05:53 Clear 79 26.1 50 10 36 36 NW 3 6 29.90 1012 10 16 0.00 0.00
6:53 am 06:53 Sunny 79 26.1 50 10 36 36 NW 3 6 29.92 1013 10 16 0.00 0.00
7:53 am 07:53 Sunny 83 28.3 50 10 32 32 Calm 29.93 1014 10 16 0.00 0.00
8:53 am 08:53 Sunny 88 31.1 47 8.3 24 24 Calm 29.93 1014 10 16 0.00 0.00
9:53 am 09:53 Sunny 92 33.3 47 8.3 21 21 Calm 29.94 1014 10 16 0.00 0.00
10:53 am 10:53 Sunny 95 35 46 7.8 19 19 Calm 29.92 1013 10 16 0.00 0.00
11:53 am 11:53 Sunny 98 36.7 46 7.8 17 17 E 8 13 29.90 1013 10 16 0.00 0.00
12:53 pm 12:53 Sunny 101 38.3 44 6.7 14 14 SSE 9 15 29.86 1011 10 16 0.00 0.00
1:53 pm 13:53 Sunny 105 40.6 32 0 8 8 SW 17 28 29.84 1010 10 16 0.00 0.00
2:53 pm 14:53 Sunny 105 40.6 31 -0.6 7 7 WSW 18 30 29.81 1010 10 16 0.00 0.00
3:53 pm 15:53 Sunny 105 40.6 32 0 8 8 SSW 15 24 29.79 1009 10 16 0.00 0.00
4:53 pm 16:53 Sunny 104 40 32 0 8 8 WSW 18 30 29.79 1009 10 16 0.00 0.00
5:53 pm 17:53 Sunny 103 39.4 30 -1.1 8 8 WSW 18 30 29.78 1009 10 16 0.00 0.00
6:53 pm 18:53 Clear 100 37.8 28 -2.2 8 8 WSW 14 22 29.78 1009 10 16 0.00 0.00
7:53 pm 19:53 Clear 98 36.7 31 -0.6 9 9 SW 10 17 29.80 1009 10 16 0.00 0.00
8:53 pm 20:53 Clear 96 35.6 34 1.1 11 11 SSW 9 15 29.80 1009 10 16 0.00 0.00
9:53 pm 21:53 Clear 93 33.9 36 2.2 13 13 SSW 8 13 29.80 1009 10 16 0.00 0.00
10:53 pm 22:53 Clear 91 32.8 37 2.8 15 15 SW 6 9 29.80 1009 10 16 0.00 0.00
11:53 pm 23:53 Clear 87 30.6 37 2.8 17 17 Calm 29.81 1009 10 16 0.00 0.00

Powered by AerisWeather